Location: B?ogocice
(50.2413°N, 20.2361°E)
Time: 11:43:25
(UTC+00:00)

Cosmos 1869 - Pass Details

Date: 15 June 2024
Orbit: 490 x 527 km, 82.5° (Epoch: 15 July)

Event Time Altitude Azimuth Distance (km) Brightness Sun altitude
Rises 00:03:15 0° 350° (N) 2,589 7.9 -14.1°
Reaches altitude 10° 00:05:22 10° 352° (N) 1,698 6.8 -14.0°
Maximum altitude 00:09:05 80° 79° (ENE) 506 3.1 -13.8°
Enters shadow 00:11:41 19° 166° (SSE) 1,239 4.6 -13.7°
